Regional Weather Roundup
Issued by NWS

Home | Current Version | Previous Version | Graphics & Text | Print | Product List | Glossary On
Versions: 1 2 3 4 5 6 7 8 9 10 11 12 13 14 15 16 17 18 19 20 21 22 23 24 25 26 27 28 29 30 31 32 33 34 35 36 37 38 39 40 41 42 43 44 45 46 47 48 49 50
000
ASUS43 KMKX 032121
RWRWI

WISCONSIN REGIONAL WEATHER ROUNDUP
NATIONAL WEATHER SERVICE MILWAUKEE/SULLIVAN WI
400 PM CDT WED JUN 03 2015

NOTE: "FAIR" INDICATES FEW OR NO CLOUDS BELOW 12,000 FEET WITH NO
SIGNIFICANT WEATHER AND/OR OBSTRUCTIONS TO VISIBILITY.

WIZ001-002-006>008-014>016-023>028-032200-
NORTHWEST WISCONSIN

CITY           SKY/WX    TMP DP  RH WIND       PRES   REMARKS
SUPERIOR ARPT  CLOUDY    55  53  93 E5        29.90S
ASHLAND        CLOUDY    65  62  90 CALM      29.90F
HAYWARD        CLOUDY    67  56  67 S12       29.92S
SIREN          LGT RAIN  63  60  91 S8        29.90S
CUMBERLAND     LGT RAIN  61  59  94 CALM      29.92S
RICE LAKE      RAIN      64  60  87 CALM      29.92F
CHETEK         HVY RAIN  64  61  91 SE5       29.92S
LADYSMITH      CLOUDY    70  59  67 CALM      29.93F
EAU CLAIRE       N/A     64  61  90 N3        29.90F
MENOMONIE      CLOUDY    64  63  99 E3        29.91S
NEW RICHMOND   CLOUDY    63  62  99 E6        29.89F FOG
OSCEOLA        CLOUDY    64  64 100 E7        29.91F
$$

WIZ003>005-009-010-017-018-032200-
NORTH CENTRAL WISCONSIN

CITY           SKY/WX    TMP DP  RH WIND       PRES   REMARKS
MANITOWISH WTR CLOUDY    71  54  53 S8        29.92F
ARBOR VITAE    PTSUNNY   75  55  49 S14G20    29.93S
WOODRUFF       PTSUNNY   75  55  49 S14G20    29.93S
RHINELANDER    PTSUNNY   75  52  44 S12       29.95F
EAGLE RIVER    MOSUNNY   74  49  42 S9G16     29.94S
LAND O LAKES   CLOUDY    76  51  41 SE7       29.93F
PHILLIPS       CLOUDY    72  56  58 S7        29.92F
TOMAHAWK       PTSUNNY   71  55  55 S6        29.95S
MEDFORD        CLOUDY    71  58  62 S12G17    29.93F
MERRILL        NOT AVBL
$$

WIZ029-030-035-036-043>047-032200-
CENTRAL WISCONSIN

CITY           SKY/WX    TMP DP  RH WIND       PRES   REMARKS
WAUSAU         PTSUNNY   75  55  49 S14       29.92S
MOSINEE        MOSUNNY   73  55  53 SE15G21   29.95S
MARSHFIELD     CLOUDY    75  57  53 S17G23    29.93S
STEVENS POINT  PTSUNNY   73  54  51 SE12G17   29.94F
WAUPACA        PTSUNNY   78  54  43 S12G18    29.95F
WAUTOMA        PTSUNNY   76  56  49 S9        29.95F
WISC RAPIDS    CLOUDY    75  53  46 S8        29.94S
CAMP DOUGLAS   CLOUDY    75  61  62 S13       29.92F
$$

WIZ011>013-019>022-031-037>040-048>050-032200-
NORTHEAST WISCONSIN

CITY           SKY/WX    TMP DP  RH WIND       PRES   REMARKS
ANTIGO         CLOUDY    71  57  61 S14G20    29.96F
SHAWANO        PTSUNNY   76  52  43 S8G18     29.96S
OCONTO         PTSUNNY   69  45  41 SE9G16    29.98F
STURGEON BAY   PTSUNNY   64  39  39 S15G24    30.02F
GREEN BAY      PTSUNNY   72  49  44 SE13      29.98F
MANITOWOC      PTSUNNY   62  48  60 S16       30.02F
APPLETON       PTSUNNY   73  52  46 SE15      29.97F
CLINTONVILLE   CLOUDY    75  52  43 S12       29.95F
OSHKOSH        CLOUDY    73  53  49 SE14      29.96F
$$

WIZ032>034-041-042-053>061-032200-
SOUTHWEST WISCONSIN

CITY           SKY/WX    TMP DP  RH WIND       PRES   REMARKS
LA CROSSE      CLOUDY    76  58  53 S12       29.89F
SPARTA         CLOUDY    75  55  50 S9G16     29.92F
VIROQUA        CLOUDY    74  56  53 S13       29.93S
BOSCOBEL       PTSUNNY   77  58  51 S12G21    29.91F
PRAIRIE DU CHI CLOUDY    76  54  45 S8        29.90S
PLATTEVILLE    MOSUNNY   77  59  53 S15G21    29.94S
$$

WIZ056-057-062-063-064-067-068-032200-
SOUTH CENTRAL WISCONSIN

CITY           SKY/WX    TMP DP  RH WIND       PRES   REMARKS
REEDSBURG      CLOUDY    77  60  55 S9G16     29.93F
BARABOO/DELLS  CLOUDY    75  57  54 S13       29.94F
LONE ROCK      PTSUNNY   78  56  46 S16G22    29.93F
MINERAL POINT  PTSUNNY   79  54  41 S15G22    29.94F
MADISON        CLOUDY    75  56  51 S12G20    29.95F
MIDDLETON      CLOUDY    78  52  40 S13       29.95F
WATERTOWN      PTSUNNY   74  57  54 S8        29.96F
MONROE         PTSUNNY   77  55  47 S17       29.95F
JANESVILLE     MOSUNNY   79  55  44 S14       29.96F
$$

WIZ051-052-058>065-066-070>072-032200-
SOUTHEAST WISCONSIN

CITY           SKY/WX    TMP DP  RH WIND       PRES   REMARKS
MILWAUKEE      PTSUNNY   65  50  58 SE14      30.01F
WAUKESHA       MOSUNNY   70  52  52 E13       30.00F
MILWAUKEE/TIMM SUNNY     70  46  43 E13       30.01F
RACINE         MOSUNNY   67  51  56 SE12      30.03F
BURLINGTON     MOSUNNY   75  54  48 SE7       29.99S
KENOSHA        MOSUNNY   71  54  54 SE10      30.01F
FOND DU LAC    PTSUNNY   74  54  49 SE14      29.97S
SHEBOYGAN      MOSUNNY   64  51  62 S15       30.02F
WEST BEND      PTSUNNY   68  50  52 E9        30.00S
JUNEAU         CLOUDY    75  56  51 S13G20    29.98S
$$

LSZ147-162-032200-
LAKE SUPERIOR

STATION/POSITION TIME  TEMP    WIND        PRES    WAVE
                       AIR SEA DIR/SP/G            HT/PER
                 (UTC) (F)     (DEG/KT/KT) (MB)    (FT/S)
W MID LAKE BUOY  2050   40 37   80/  8/ 10   N/A     1
DEVILS ISLAND    2100   47     100/  9/ 10   N/A
PORT WING        2040   45      20/  6/ 17   N/A
SAXON HARBOR     2040   59        CALM       N/A
$$

LMZ867-665-643>646-032200-
LAKE MICHIGAN

STATION/POSITION TIME  TEMP    WIND        PRES    WAVE
                       AIR SEA DIR/SP/G            HT/PER
                 (UTC) (F)     (DEG/KT/KT) (MB)    (FT/S)
CHAMBERS ISLAND  2000   67     160/  9/ 14   N/A
N MID LAKE BUOY  2050   46 37  210/  6/  8   N/A     1
NORTHPORT PIER   2000   65     170/  7/ 18   N/A
SISTER BAY       2003   70     180/ 20/ 24   N/A
ALGOMA LAKESHORE 1909          210/ 15/ 16   N/A
KEWAUNEE LAKESHO 2000   51     180/ 13/ 15   N/A
SHEBOYGAN LAKESH 2100   49     180/ 10/ 11   N/A
PORT WASHINGTON  2000   55     160/  5/  6   N/A
ATWATER BUOY     2100   51 51  140/  6/  8   N/A
MILWAUKEE LAKESH 2100   54      90/  3/  4   N/A
S MID LAKE BUOY  2050   51 39  100/  8/  8   N/A     0
KENOSHA   LAKESH 2100   57     160/  5/  6   N/A
$$

TC  - TEMPERATURE IN CELSIUS
VSB - VISIBILITY IN STATUTE MILES
WCI - WIND CHILL INDEX
HX  - HEAT INDEX



USA.gov is the U.S. government's official web portal to all federal, state and local government web resources and services.